DateTimeUTC,F1_A11,F1_S11,BsB_S11,BsG_S11,BsR_S11,BbsB_S11,BbsG_S11,BbsR_S11,BaB_A11,BaG_A11,BaR_A11,T_S11,U_S11,P_S11,T1_A11
2020-05-24T00:00:00Z,00000388,20000608,,,,,,,,,,24.5,01.6,0665.3,31.0
2020-05-24T00:01:00Z,00000388,20000608,,,,,,,,,,24.5,01.5,0665.3,31.0
2020-05-24T00:02:00Z,00000388,20000608,,,,,,,,,,24.5,01.5,0665.3,31.0
2020-05-24T00:03:00Z,00000388,60000608,,,,,,,,,,24.5,01.5,0665.3,31.0
2020-05-24T00:04:00Z,00000388,40000608,0002.83,0001.40,0001.79,0001.14,0000.07,0000.32,0000.11,-000.02,0000.10,24.3,01.5,0666.2,31.0
2020-05-24T00:05:00Z,00000388,00000608,0004.36,0001.76,0001.56,-000.00,-000.05,0000.35,0000.52,0000.35,0000.23,24.3,01.6,0666.3,31.0
2020-05-24T00:06:00Z,00000388,00000608,0001.89,0001.19,0001.33,0001.01,0000.22,0000.53,0000.30,0000.26,0000.25,24.3,01.8,0666.3,31.0
2020-05-24T00:07:00Z,00000388,00000608,0003.82,0001.62,0000.57,0000.39,0000.10,0000.03,0000.02,0000.15,0000.13,24.3,01.9,0666.3,31.0
2020-05-24T00:08:00Z,00000388,00000608,0003.25,0001.64,0001.44,0001.02,-000.17,0000.07,0000.05,0000.04,-000.14,24.2,01.8,0666.3,31.0
2020-05-24T00:09:00Z,00000388,00000608,0002.21,0000.73,0001.57,0000.11,0000.19,0000.22,0000.29,0000.20,0000.45,24.2,01.7,0666.3,31.0
2020-05-24T00:10:00Z,00000388,00000608,0002.65,0001.01,0000.87,0000.09,-000.08,0000.12,0000.07,0000.22,0000.01,24.2,01.7,0666.3,31.0
2020-05-24T00:11:00Z,00000388,00000608,0002.67,0000.80,0000.95,0000.30,0000.09,0000.04,0000.21,0000.06,0000.07,24.2,01.7,0666.3,31.0
2020-05-24T00:12:00Z,00000388,00000608,0002.03,0001.23,0001.86,0000.35,0000.10,0000.28,0000.13,0000.08,0000.10,24.2,01.7,0666.3,31.0
2020-05-24T00:13:00Z,00000388,00000608,0002.84,0001.46,0001.34,0000.67,-000.03,0000.31,0000.01,0000.14,0000.02,24.2,01.7,0666.3,31.0
2020-05-24T00:14:00Z,00000388,00000608,0002.56,0001.81,0001.40,0000.77,-000.03,0000.50,0000.05,-000.03,0000.11,24.2,01.6,0666.3,31.1
2020-05-24T00:15:00Z,00000388,00000608,0003.23,0001.11,0002.00,0000.45,0000.47,0000.35,0000.36,0000.50,0000.28,24.2,01.7,0666.3,31.0
2020-05-24T00:16:00Z,00000388,00000608,0002.04,0002.08,0001.05,0000.15,0000.03,0000.14,0000.29,0000.12,0000.09,24.2,01.8,0666.3,31.0
2020-05-24T00:17:00Z,00000388,00000608,0002.85,0001.88,0001.58,0000.73,-000.10,0000.33,0000.16,0000.07,0000.24,24.2,01.8,0666.3,31.1
2020-05-24T00:18:00Z,00000388,00000608,0002.11,0001.61,0000.85,0000.55,0000.69,0000.37,0000.23,0000.26,0000.10,24.2,01.8,0666.3,31.0
2020-05-24T00:19:00Z,00000388,00000608,0002.61,0001.31,0001.45,-000.42,0000.32,0000.77,0000.15,0000.16,0000.14,24.2,01.7,0666.3,31.0
2020-05-24T00:20:00Z,00000388,00000608,0003.09,0001.93,0001.03,0000.26,0000.34,0000.23,0000.11,0000.09,-000.04,24.2,01.8,0666.3,31.0
2020-05-24T00:21:00Z,00000388,00000608,0003.70,0000.83,0000.33,0000.85,0000.07,0000.17,-000.10,0000.14,0000.15,24.2,01.7,0666.3,31.0
2020-05-24T00:22:00Z,00000388,00000608,0003.39,0001.99,0001.86,-000.10,0000.57,0000.80,0000.25,0000.08,0000.20,24.2,01.7,0666.3,31.0
2020-05-24T00:23:00Z,00000388,00000608,0003.36,0000.77,0001.60,-000.12,0000.09,0000.40,0000.23,0000.04,-000.05,24.2,01.7,0666.3,31.0
2020-05-24T00:24:00Z,00000388,00000608,0002.26,0001.55,0001.02,0000.88,0000.13,0000.49,-000.02,0000.07,0000.19,24.2,01.7,0666.3,31.0
2020-05-24T00:25:00Z,00000388,00000608,0003.45,0001.11,0001.06,0000.43,0000.63,0000.24,0000.21,0000.25,0000.05,24.1,01.7,0666.3,31.0
2020-05-24T00:26:00Z,00000388,00000608,0001.34,0001.62,0001.32,-001.10,0000.37,0000.27,0000.40,0000.23,0000.24,24.1,01.6,0666.3,31.0
2020-05-24T00:27:00Z,00000388,00000608,0003.54,0001.47,0001.56,0000.32,-000.01,0000.40,0000.18,0000.30,0000.13,24.2,01.8,0666.3,31.0
2020-05-24T00:28:00Z,00000388,00000608,0001.94,0001.52,0001.08,0000.21,0000.13,0000.29,0000.07,0000.16,0000.18,24.1,01.8,0666.3,31.0
2020-05-24T00:29:00Z,00000388,00000608,0003.01,0001.48,0001.00,-000.23,-000.00,0000.26,0000.19,0000.03,0000.05,24.1,01.8,0666.3,31.0
2020-05-24T00:30:00Z,00000388,00000608,0001.99,0001.82,0002.37,-000.02,0000.25,0000.55,0000.14,0000.04,0000.03,24.1,01.8,0666.3,31.0
2020-05-24T00:31:00Z,00000388,00000608,0003.46,0001.99,0000.98,0000.30,0000.39,0000.56,-000.04,-000.02,-000.03,24.1,01.7,0666.3,31.0
2020-05-24T00:32:00Z,00000388,00000608,0002.52,0001.55,0001.60,-000.27,0000.04,0000.68,0000.05,0000.19,0000.19,24.1,01.7,0666.3,31.0
2020-05-24T00:33:00Z,00000388,00000608,0003.19,0000.98,0001.23,-000.00,-000.20,0000.35,-000.01,0000.13,-000.10,24.1,01.6,0666.3,31.0
2020-05-24T00:34:00Z,00000388,00000608,0001.78,0001.59,0001.48,0000.72,0000.32,0000.51,0000.40,0000.30,0000.22,24.1,01.6,0666.3,31.0
2020-05-24T00:35:00Z,00000388,00000608,0003.15,0001.38,0000.87,0000.78,-000.33,0000.12,0000.24,0000.08,0000.20,24.1,01.7,0666.3,31.0
2020-05-24T00:36:00Z,00000388,00000608,0003.43,0001.69,0001.17,0000.79,-000.05,0000.50,0000.10,0000.27,0000.09,24.1,01.7,0666.3,31.0
2020-05-24T00:37:00Z,00000388,00000608,0003.49,0000.73,0001.20,-000.20,0000.31,0000.49,0000.21,0000.12,0000.24,24.1,01.8,0666.3,31.0
2020-05-24T00:38:00Z,00000388,00000608,0003.44,0001.07,0001.39,0000.39,0000.23,0000.78,0000.24,0000.22,0000.08,24.1,01.8,0666.3,31.0
2020-05-24T00:39:00Z,00000388,00000608,0002.27,0001.77,0001.31,-000.51,0000.62,0000.42,-000.11,-000.01,-000.08,24.1,01.6,0666.3,31.0
2020-05-24T00:40:00Z,00000388,00000608,0002.87,0001.75,0001.29,0000.22,0000.16,0000.31,0000.43,0000.30,0000.37,24.1,01.7,0666.3,31.0
2020-05-24T00:41:00Z,00000388,00000608,0003.03,0001.05,0001.78,0000.79,-000.42,0000.63,-000.10,0000.02,-000.01,24.1,01.6,0666.3,31.1
2020-05-24T00:42:00Z,00000388,00000608,0002.21,0001.19,0001.21,0000.35,0000.09,0000.12,0000.45,0000.27,0000.18,24.1,01.7,0666.3,31.0
2020-05-24T00:43:00Z,00000388,00000608,0002.64,0001.36,0001.06,-000.06,0000.19,0000.76,-000.05,0000.10,0000.02,24.1,01.7,0666.3,31.1
2020-05-24T00:44:00Z,00000388,00000608,0002.47,0002.01,0000.84,0001.56,0000.28,0000.51,0000.26,0000.18,0000.18,24.1,01.8,0666.3,31.0
2020-05-24T00:45:00Z,00000388,00000608,0003.32,0001.65,0001.42,-000.33,0000.11,0000.71,0000.15,0000.15,0000.07,24.1,01.8,0666.3,31.0
2020-05-24T00:46:00Z,00000388,00000608,0002.97,0001.46,0001.25,0000.22,0000.22,0000.48,0000.15,0000.24,0000.14,24.1,01.7,0666.3,31.0
2020-05-24T00:47:00Z,00000388,00000608,0002.36,0001.27,0001.48,0000.48,-000.02,0000.51,0000.13,0000.10,0000.14,24.1,01.8,0666.3,31.0
2020-05-24T00:48:00Z,00000388,00000608,0003.09,0001.57,0001.65,0000.79,-000.10,-000.02,0000.21,0000.03,0000.10,24.1,01.7,0666.3,31.0
2020-05-24T00:49:00Z,00000388,00000608,0002.12,0001.51,0001.21,0000.65,0000.21,-000.04,-000.10,-000.02,-000.13,24.1,01.7,0666.3,31.0
2020-05-24T00:50:00Z,00000388,00000608,0003.57,0001.05,0001.19,0000.55,-000.18,-000.12,0000.09,0000.12,0000.15,24.1,01.6,0666.3,31.0
2020-05-24T00:51:00Z,00000388,00000608,0002.22,0001.22,0000.91,-000.12,0000.31,0000.28,0000.06,0000.17,0000.18,24.1,01.5,0666.3,31.0
2020-05-24T00:52:00Z,00000388,00000608,0002.24,0001.44,0001.40,0000.00,0000.40,0000.52,0000.47,0000.43,0000.24,24.1,01.6,0666.3,31.0
2020-05-24T00:53:00Z,00000388,00000608,0003.58,0001.96,0001.27,-000.29,0000.19,0000.58,0000.03,0000.11,0000.09,24.0,01.7,0666.3,31.0
2020-05-24T00:54:00Z,00000388,00000608,0002.76,0001.62,0000.42,-000.08,0000.12,-000.05,-000.01,0000.05,0000.03,24.1,01.7,0666.3,31.0
2020-05-24T00:55:00Z,00000388,00000608,0002.30,0001.89,0001.47,0000.22,0000.05,0000.54,0000.30,0000.21,0000.14,24.0,01.7,0666.3,31.0
2020-05-24T00:56:00Z,00000388,00000608,0002.28,0000.94,0001.03,-000.19,-000.02,0000.33,0000.20,0000.17,0000.02,24.0,01.7,0666.3,31.0
2020-05-24T00:57:00Z,00000388,40000608,,,,,,,,,,24.1,01.5,0666.4,31.0
2020-05-24T00:58:00Z,00000388,60000608,,,,,,,,,,24.2,01.5,0665.3,31.0
2020-05-24T00:59:00Z,00000388,20000608,,,,,,,,,,24.3,01.5,0665.2,31.0
2020-05-24T01:00:00Z,00000388,20000608,,,,,,,,,,24.3,01.5,0665.3,31.1
2020-05-24T01:01:00Z,00000388,20000608,,,,,,,,,,24.3,01.5,0665.3,31.0
2020-05-24T01:02:00Z,00000388,20000608,,,,,,,,,,24.3,01.5,0665.3,31.0
2020-05-24T01:03:00Z,00000388,60000608,,,,,,,,,,24.3,01.5,0665.3,31.0
2020-05-24T01:04:00Z,00000388,40000608,0004.01,0001.58,0001.08,0000.00,0000.78,-000.20,0000.14,0000.05,0000.18,24.1,01.6,0666.2,31.0
2020-05-24T01:05:00Z,00000388,00000608,0002.60,0001.83,0000.85,-000.35,0000.30,0000.19,0000.11,0000.14,0000.01,24.1,01.7,0666.3,31.0
2020-05-24T01:06:00Z,00000388,00000608,0003.54,0002.03,0001.36,0000.69,0000.66,0000.07,0000.14,0000.09,0000.35,24.0,01.6,0666.3,31.0
2020-05-24T01:07:00Z,00000388,00000608,0004.57,0001.76,0000.50,0000.94,0000.11,-000.10,0000.08,0000.11,-000.12,24.0,01.6,0666.3,31.0
2020-05-24T01:08:00Z,00000388,00000608,0003.47,0001.30,0001.22,0000.14,0000.53,0000.50,0000.12,0000.06,0000.12,24.0,01.7,0666.3,31.0
2020-05-24T01:09:00Z,00000388,00000608,0002.78,0001.44,0001.32,0000.65,0000.38,-000.08,0000.18,0000.22,0000.06,24.0,01.7,0666.3,31.0
2020-05-24T01:10:00Z,00000388,00000608,0004.31,0002.78,0001.75,0000.36,0000.40,0000.19,0003.55,0003.23,0002.51,24.0,01.6,0666.3,31.0
2020-05-24T01:11:00Z,00000388,00000608,0005.23,0003.19,0002.14,0001.47,0000.98,0000.74,0010.08,0009.27,0007.07,24.0,01.7,0666.3,31.0
2020-05-24T01:12:00Z,00000388,00000608,0003.59,0001.99,0001.07,0001.30,0000.46,0000.37,0002.14,0001.82,0001.44,24.0,01.6,0666.3,31.0
2020-05-24T01:13:00Z,00000388,00000608,0003.37,0002.33,0000.97,-000.35,0000.31,-000.20,0000.69,0000.59,0000.54,24.0,01.6,0666.3,31.0
2020-05-24T01:14:00Z,00000388,00000608,0004.02,0002.34,0001.25,-000.32,0000.89,0000.36,0001.45,0001.59,0001.09,24.0,01.6,0666.3,31.0
2020-05-24T01:15:00Z,00000388,00000608,0003.35,0001.86,0000.94,0000.27,0000.60,0000.09,0000.19,0000.18,0000.21,24.0,01.6,0666.3,31.0
2020-05-24T01:16:00Z,00000388,00000608,0003.86,0001.93,0000.90,0000.59,0000.23,0000.42,0000.14,0000.03,0000.09,24.0,01.7,0666.3,31.0
2020-05-24T01:17:00Z,00000388,00000608,0003.24,0001.20,0001.06,0000.13,0000.49,-000.29,0000.39,0000.37,0000.13,24.0,01.6,0666.3,31.0
2020-05-24T01:18:00Z,00000388,00000608,0005.88,0004.11,0002.36,0001.25,0001.09,0000.37,0010.29,0009.14,0007.14,24.0,01.6,0666.3,31.0
2020-05-24T01:19:00Z,00000388,00000608,0006.71,0004.51,0002.19,0001.37,0000.72,0000.45,0013.77,0012.62,0009.74,23.9,01.6,0666.3,31.0
2020-05-24T01:20:00Z,00000388,00000608,0003.62,0002.07,0001.22,0001.36,0000.51,-000.25,0001.58,0001.52,0001.24,24.0,01.7,0666.3,31.0
2020-05-24T01:21:00Z,00000388,00000608,0002.81,0001.67,0000.62,0000.20,0000.21,-000.36,0000.31,0000.29,0000.13,24.0,01.6,0666.3,31.0
2020-05-24T01:22:00Z,00000388,00000608,0004.59,0002.25,0000.88,0000.55,0000.78,0000.31,0001.95,0001.69,0001.37,24.0,01.6,0666.3,31.0
2020-05-24T01:23:00Z,00000388,00000608,0004.84,0003.05,0001.78,0000.16,0000.36,0000.33,0007.56,0006.93,0005.34,23.9,01.6,0666.3,31.0
2020-05-24T01:24:00Z,00000388,00000608,0004.14,0002.93,0001.48,0001.00,0000.70,0000.29,0005.60,0004.97,0003.87,23.9,01.5,0666.2,31.0
2020-05-24T01:25:00Z,00000388,00000608,0003.43,0001.97,0000.94,0001.06,0000.34,0000.35,0000.57,0000.82,0000.44,24.0,01.6,0666.3,31.0
2020-05-24T01:26:00Z,00000388,00000608,0003.35,0002.16,0001.42,0000.58,0000.24,0000.20,0000.26,0000.01,0000.22,23.9,01.6,0666.3,31.0
2020-05-24T01:27:00Z,00000388,00000608,0003.55,0002.30,0001.05,0000.08,0000.48,0000.57,0000.27,0000.38,0000.09,23.9,01.6,0666.3,31.0
2020-05-24T01:28:00Z,00000388,00000608,0003.22,0002.09,0001.07,0000.21,0000.33,-000.27,0000.63,0000.48,0000.48,23.9,01.6,0666.3,31.0
2020-05-24T01:29:00Z,00000388,00000608,0004.13,0002.82,0001.72,0001.63,0000.68,0000.10,0004.12,0003.76,0003.02,23.9,01.6,0666.3,31.0
2020-05-24T01:30:00Z,00000388,00000608,0005.19,0002.75,0001.09,0001.60,0000.15,0000.33,0004.34,0003.92,0002.92,23.9,01.6,0666.2,31.0
2020-05-24T01:31:00Z,00000388,00000608,0004.72,0002.13,0001.44,0000.33,0001.14,0000.03,0004.21,0003.89,0002.95,23.9,01.6,0666.2,31.0
2020-05-24T01:32:00Z,00000388,00000608,0006.26,0004.95,0002.97,0001.84,0000.97,0000.54,0014.09,0012.76,0009.98,23.9,01.6,0666.2,31.0
2020-05-24T01:33:00Z,00000388,00000608,0004.30,0002.97,0001.31,0001.20,0000.58,0000.35,0004.92,0004.73,0003.45,23.9,01.5,0666.2,31.0
2020-05-24T01:34:00Z,00000388,00000608,0003.24,0001.55,0001.35,0000.63,0000.65,0000.18,0000.44,0000.23,0000.39,23.9,01.5,0666.2,31.0
2020-05-24T01:35:00Z,00000388,00000608,0002.89,0001.74,0000.79,-000.40,0000.44,-000.24,0000.21,0000.29,0000.10,23.9,01.6,0666.1,31.0
2020-05-24T01:36:00Z,00000388,00000608,0005.95,0003.59,0002.00,0001.08,0000.76,0000.41,0007.30,0006.61,0005.30,23.9,01.6,0666.1,31.0
2020-05-24T01:37:00Z,00000388,00000608,0003.88,0002.67,0001.52,0000.98,0000.39,0000.12,0004.18,0003.79,0002.85,23.9,01.5,0666.0,31.0
2020-05-24T01:38:00Z,00000388,00000608,0002.99,0002.59,0001.50,0000.76,0000.29,0000.28,0000.89,0000.73,0000.63,23.9,01.5,0666.1,31.0
2020-05-24T01:39:00Z,00000388,00000608,0003.68,0002.42,0001.07,0001.05,0000.47,-000.08,0001.30,0001.30,0000.99,23.9,01.5,0666.1,31.0
2020-05-24T01:40:00Z,00000388,00000608,0004.33,0002.92,0001.73,0000.19,0000.84,0000.35,0004.09,0003.66,0002.61,23.9,01.5,0666.1,31.0
2020-05-24T01:41:00Z,00000388,00000608,0008.75,0005.76,0003.28,0001.75,0001.09,0000.85,0017.41,0015.78,0012.26,23.9,01.5,0666.1,31.0
2020-05-24T01:42:00Z,00000388,00000608,0008.40,0005.28,0002.96,0000.36,0001.28,0000.58,0013.99,0012.90,0009.89,23.8,01.5,0666.1,31.0
2020-05-24T01:43:00Z,00000388,00000608,0005.49,0003.50,0002.19,0001.25,0001.16,0000.34,0010.25,0009.40,0007.49,23.9,01.5,0666.1,31.0
2020-05-24T01:44:00Z,00000388,00000608,0001.88,0001.97,0000.93,0000.47,0000.48,0000.06,0000.52,0000.39,0000.33,23.8,01.5,0666.1,31.0
2020-05-24T01:45:00Z,00000388,00000608,0003.35,0002.17,0001.07,0000.39,0000.52,0000.47,0000.23,0000.31,0000.11,23.8,01.5,0666.1,31.0
2020-05-24T01:46:00Z,00000388,00000608,0003.42,0002.52,0001.60,0000.96,0000.47,-000.03,0000.37,0000.12,0000.23,23.9,01.5,0666.1,31.0
2020-05-24T01:47:00Z,00000388,00000608,0005.36,0002.12,0001.25,0000.01,0000.63,0000.42,0000.03,0000.27,0000.16,23.8,01.4,0666.0,31.0
2020-05-24T01:48:00Z,00000388,00000608,0002.60,0002.29,0000.74,-000.15,0000.12,-000.07,0000.39,0000.30,0000.06,23.8,01.5,0666.0,31.0
2020-05-24T01:49:00Z,00000388,00000608,0003.08,0002.14,0001.27,0000.48,0000.80,0000.33,0000.15,0000.19,0000.23,23.8,01.4,0666.0,31.0
2020-05-24T01:50:00Z,00000388,00000608,0004.75,0001.99,0000.94,0000.91,0000.42,-000.07,0000.27,0000.03,0000.09,23.8,01.4,0666.0,31.0
2020-05-24T01:51:00Z,00000388,00000608,0003.59,0002.23,0000.86,0001.29,0000.14,-000.13,0000.13,0000.31,0000.20,23.8,01.4,0666.1,31.0
2020-05-24T01:52:00Z,00000388,00000608,0003.59,0002.32,0001.04,0000.51,0000.65,0000.41,0000.16,-000.00,0000.25,23.8,01.4,0666.1,31.0
2020-05-24T01:53:00Z,00000388,00000608,0002.52,0001.77,0000.60,0000.18,0000.20,0000.04,0000.12,0000.21,-000.04,23.8,01.4,0666.1,31.0
2020-05-24T01:54:00Z,00000388,00000608,0001.92,0001.48,0000.74,0000.69,0000.11,0000.08,0000.15,0000.15,0000.26,23.8,01.5,0666.1,31.0
2020-05-24T01:55:00Z,00000388,00000608,0003.53,0002.05,0001.06,0000.53,0000.37,0000.39,0000.33,0000.26,0000.08,23.8,01.4,0666.1,31.0
2020-05-24T01:56:00Z,00000388,00000608,0004.07,0001.68,0001.37,0000.92,0000.39,0000.32,0000.50,0000.58,0000.50,23.8,01.4,0666.1,31.0
2020-05-24T01:57:00Z,00000388,40000608,,,,,,,,,,23.9,01.3,0666.2,31.0
2020-05-24T01:58:00Z,00000388,60000608,,,,,,,,,,23.9,01.4,0665.1,31.0
2020-05-24T01:59:00Z,00000388,20000608,,,,,,,,,,24.0,01.3,0665.1,31.0
2020-05-24T02:00:00Z,00000388,20000608,,,,,,,,,,24.1,01.3,0665.1,31.0
2020-05-24T02:01:00Z,00000388,20000608,,,,,,,,,,24.1,01.3,0665.1,31.0
2020-05-24T02:02:00Z,00000388,20000608,,,,,,,,,,24.1,01.3,0665.1,31.0
2020-05-24T02:03:00Z,00000388,60000608,,,,,,,,,,24.1,01.3,0665.1,31.0
2020-05-24T02:04:00Z,00000388,41000608,0004.63,0002.39,0001.30,0000.50,0000.41,0000.29,0002.77,0002.53,0002.00,23.9,01.2,0666.1,31.0
2020-05-24T02:05:00Z,00000388,00000608,0003.63,0002.55,0001.64,0000.58,0000.71,0000.58,0003.50,0003.07,0002.34,23.9,01.3,0666.2,31.0
2020-05-24T02:06:00Z,00000388,00000608,0002.68,0002.09,0001.46,0000.39,0000.45,0000.60,0002.49,0002.50,0001.86,23.8,01.4,0666.2,31.0
2020-05-24T02:07:00Z,00000388,01000608,0002.68,0001.68,0001.27,0000.70,0000.49,0000.41,0000.34,0000.26,0000.17,23.8,01.3,0666.2,31.0
2020-05-24T02:08:00Z,00000388,00000608,0002.41,0001.86,0001.11,0000.97,0000.26,0000.67,0000.20,0000.25,0000.27,23.8,01.3,0666.2,31.0
2020-05-24T02:09:00Z,00000388,01000608,0002.72,0001.72,0001.20,0000.64,-000.12,0000.15,0000.44,0000.30,0000.13,23.8,01.3,0666.2,31.0
2020-05-24T02:10:00Z,00000388,00000608,0003.45,0001.35,0001.41,0000.51,0000.44,0000.07,-000.06,-000.06,0000.09,23.8,01.3,0666.1,31.0
2020-05-24T02:11:00Z,00000388,01000608,0002.85,0001.59,0001.21,0000.21,0000.20,-000.13,0000.22,0000.19,0000.25,23.8,01.2,0666.1,31.0
2020-05-24T02:12:00Z,00000388,01000608,0004.63,0002.67,0001.70,-000.26,0000.58,0000.91,0002.64,0002.35,0001.72,23.8,01.2,0666.2,31.0
2020-05-24T02:13:00Z,00000388,00000608,0004.17,0002.27,0001.82,0001.12,0000.36,0000.63,0004.95,0004.71,0003.54,23.8,01.3,0666.2,31.0
2020-05-24T02:14:00Z,00000388,01000608,0002.74,0002.23,0001.63,0000.09,0000.45,0000.41,0000.61,0000.51,0000.44,23.8,01.3,0666.2,31.0
2020-05-24T02:15:00Z,00000388,01000608,0001.79,0001.80,0000.69,0000.03,0000.16,0000.33,0001.10,0000.84,0000.82,23.8,01.3,0666.2,31.0
2020-05-24T02:16:00Z,00000388,01000608,0002.78,0002.64,0001.32,0000.49,0000.43,0000.33,0002.58,0002.38,0001.75,23.8,01.3,0666.2,31.0
2020-05-24T02:17:00Z,00000388,01000608,0006.17,0004.06,0002.45,0000.88,0000.50,0000.73,0009.23,0008.53,0006.60,23.8,01.3,0666.1,31.0
2020-05-24T02:18:00Z,00000388,01000608,0003.26,0002.51,0001.33,0000.12,-000.22,0000.37,0000.18,0000.29,0000.22,23.8,01.2,0666.1,31.0
2020-05-24T02:19:00Z,00000388,01000608,0001.88,0002.06,0001.31,-000.50,0000.57,0000.27,0000.35,0000.25,0000.33,23.8,01.2,0666.2,31.0
2020-05-24T02:20:00Z,00000388,00000608,0002.34,0001.86,0001.11,0001.22,0000.26,0000.34,0000.45,0000.49,0000.27,23.7,01.2,0666.2,31.0
2020-05-24T02:21:00Z,00000388,00000608,0003.65,0001.82,0001.32,-000.12,0000.46,0000.36,0000.27,0000.15,0000.34,23.7,01.2,0666.2,31.0
2020-05-24T02:22:00Z,00000388,01000608,0002.75,0001.76,0000.97,0000.62,0000.34,0000.41,0000.17,0000.08,-000.08,23.7,01.2,0666.1,31.0
2020-05-24T02:23:00Z,00000388,01000608,0002.68,0002.22,0001.19,0000.92,0000.39,0000.32,0000.25,0000.13,0000.08,23.7,01.2,0666.1,31.0
2020-05-24T02:24:00Z,00000388,01000608,0002.65,0001.41,0001.18,0000.96,0000.35,0000.65,0000.16,0000.27,0000.29,23.7,01.3,0666.1,31.0
2020-05-24T02:25:00Z,00000388,01000608,0003.22,0001.57,0001.43,0000.45,0000.21,0000.17,0000.10,0000.25,0000.11,23.7,01.2,0666.1,31.0
2020-05-24T02:26:00Z,00000388,01000608,0002.77,0001.69,0000.99,0001.18,-000.00,0000.13,0000.05,0000.02,0000.04,23.7,01.2,0666.1,31.0
2020-05-24T02:27:00Z,00000388,01000608,0003.22,0001.95,0001.14,0001.01,0000.42,0000.91,0000.31,0000.05,0000.12,23.7,01.1,0666.1,31.0
2020-05-24T02:28:00Z,00000388,01000608,0003.34,0002.11,0001.06,0000.43,0000.22,0000.28,0000.10,0000.38,0000.18,23.7,01.2,0666.1,31.0
2020-05-24T02:29:00Z,00000388,01000608,0003.19,0001.88,0000.86,0001.08,0000.36,0000.52,0000.23,0000.12,0000.11,23.7,01.1,0666.1,31.0
2020-05-24T02:30:00Z,00000388,01000608,0003.44,0001.19,0000.96,-000.13,0000.24,0000.31,0000.27,0000.09,0000.01,23.7,01.2,0666.1,31.0
2020-05-24T02:31:00Z,00000388,01000608,0002.45,0001.51,0001.35,0000.47,0000.23,0000.47,0000.26,0000.32,0000.19,23.7,01.1,0666.2,31.0
2020-05-24T02:32:00Z,00000388,01000608,0003.76,0002.65,0001.69,-000.29,-000.11,0000.56,-000.12,-000.06,0000.05,23.7,01.2,0666.1,31.0
2020-05-24T02:33:00Z,00000388,01000608,0002.11,0002.24,0000.54,0000.09,0000.11,0000.55,0000.22,0000.22,0000.28,23.7,01.2,0666.1,31.0
2020-05-24T02:34:00Z,00000388,01000608,0003.09,0002.48,0001.14,-000.34,0000.43,0000.91,0000.27,0000.19,0000.21,23.7,01.2,0666.2,31.0
2020-05-24T02:35:00Z,00000388,01000608,0002.53,0001.71,0001.28,0000.24,-000.29,0000.21,0000.14,0000.08,0000.04,23.7,01.2,0666.2,31.0
2020-05-24T02:36:00Z,00000388,01000608,0002.93,0001.87,0000.73,0000.20,0000.61,0000.49,0000.21,0000.32,0000.18,23.7,01.2,0666.2,31.0
2020-05-24T02:37:00Z,00000388,01000608,0003.53,0001.30,0001.08,0000.20,0000.54,0000.09,0000.13,0000.10,-000.02,23.7,01.0,0666.1,31.0
2020-05-24T02:38:00Z,00000388,01000608,0002.95,0001.77,0001.30,0000.46,0000.41,0000.73,0000.27,0000.10,0000.19,23.7,01.2,0666.1,31.0
2020-05-24T02:39:00Z,00000388,01000608,0003.28,0001.95,0001.14,0000.24,-000.05,0000.53,-000.01,0000.19,0000.08,23.7,01.1,0666.1,31.0
2020-05-24T02:40:00Z,00000388,01000608,0002.89,0001.10,0001.62,0000.73,0000.60,0000.51,0000.25,0000.25,0000.13,23.7,01.1,0666.1,31.0
2020-05-24T02:41:00Z,00000388,01000608,0002.26,0001.85,0001.00,0001.00,-000.17,0000.42,0000.04,-000.05,0000.02,23.7,01.1,0666.1,31.0
2020-05-24T02:42:00Z,00000388,01000608,0002.27,0000.86,0001.06,-000.40,0000.25,0000.68,0000.05,0000.26,0000.24,23.7,01.1,0666.1,31.0
2020-05-24T02:43:00Z,00000388,01000608,0002.56,0001.03,0000.71,0000.32,0000.35,0000.22,0000.27,0000.05,0000.09,23.6,01.0,0666.1,31.0
2020-05-24T02:44:00Z,00000388,01000608,0002.78,0001.31,0000.69,0000.91,0000.30,0000.03,0001.54,0001.30,0000.97,23.6,01.1,0666.1,31.0
2020-05-24T02:45:00Z,00000388,01000608,0003.14,0002.74,0001.89,0000.32,0000.60,0000.44,0003.43,0003.40,0002.49,23.6,01.1,0666.1,31.0
2020-05-24T02:46:00Z,00000388,01000608,0003.54,0002.26,0001.04,0000.24,0000.14,0000.64,0002.14,0001.90,0001.57,23.7,01.1,0666.1,31.0
2020-05-24T02:47:00Z,00000388,01000608,0002.77,0001.36,0000.88,0000.52,0000.03,0000.20,0000.40,0000.21,0000.23,23.6,01.0,0666.1,31.0
2020-05-24T02:48:00Z,00000388,01000608,0002.61,0001.49,0000.98,0000.06,0000.44,0000.24,0000.14,0000.33,0000.02,23.6,01.1,0666.1,31.0
2020-05-24T02:49:00Z,00000388,01000608,0000.97,0000.90,0000.90,0000.53,0000.70,0000.42,0000.11,-000.01,0000.18,23.6,01.0,0666.1,31.0
2020-05-24T02:50:00Z,00000388,01000608,0003.00,0001.74,0001.28,0000.65,0000.18,0000.26,0000.33,0000.27,0000.30,23.6,01.1,0666.1,31.0
2020-05-24T02:51:00Z,00000388,01000608,0003.33,0002.24,0001.10,0000.57,0000.38,0000.35,0000.06,0000.18,0000.04,23.6,01.1,0666.1,31.0
2020-05-24T02:52:00Z,00000388,01000608,0003.36,0001.78,0001.97,0000.08,0000.27,0000.00,0000.19,0000.11,0000.08,23.6,01.0,0666.1,31.0
2020-05-24T02:53:00Z,00000388,01000608,0002.98,0001.76,0001.47,0000.30,0000.35,0000.70,0000.18,0000.20,0000.19,23.6,01.0,0666.1,31.0
2020-05-24T02:54:00Z,00000388,01000608,0002.13,0002.31,0001.44,0000.58,0000.21,0000.61,0000.30,0000.27,0000.14,23.6,01.1,0666.1,31.0
2020-05-24T02:55:00Z,00000388,01000608,0002.58,0001.90,0001.00,-000.45,0000.14,0000.19,-000.00,-000.06,0000.06,23.6,01.1,0666.1,31.0
2020-05-24T02:56:00Z,00000388,01000608,0002.97,0002.00,0001.10,0000.21,0000.27,0000.09,0000.34,0000.31,0000.16,23.6,01.0,0666.1,31.0
2020-05-24T02:57:00Z,00000388,40000608,,,,,,,,,,23.7,01.3,0666.1,31.0
2020-05-24T02:58:00Z,00000388,60000608,,,,,,,,,,23.8,01.0,0665.1,31.0
2020-05-24T02:59:00Z,00000388,20000608,,,,,,,,,,23.9,01.0,0665.1,31.0
2020-05-24T03:00:00Z,00000388,20000608,,,,,,,,,,23.9,01.0,0665.1,31.0
2020-05-24T03:01:00Z,00000388,20000608,,,,,,,,,,23.9,01.0,0665.1,31.0
2020-05-24T03:02:00Z,00000388,20000608,,,,,,,,,,23.9,01.0,0665.1,31.0
2020-05-24T03:03:00Z,00000388,60000608,,,,,,,,,,23.9,01.0,0665.1,31.0
2020-05-24T03:04:00Z,00000388,41000608,0001.89,0001.18,0001.08,0000.55,0000.13,0000.53,0000.22,0000.20,0000.25,23.7,01.0,0666.0,31.0
2020-05-24T03:05:00Z,00000388,01000608,0002.47,0001.77,0000.44,0000.79,-000.01,0000.27,0000.10,0000.20,0000.10,23.7,01.0,0666.1,31.0
2020-05-24T03:06:00Z,00000388,01000608,0003.38,0001.43,0000.52,0000.82,0000.65,0000.23,0000.17,0000.08,0000.01,23.6,01.0,0666.1,31.0
2020-05-24T03:07:00Z,00000388,01000608,0001.99,0001.15,0000.52,-000.37,0000.27,0000.07,0000.21,0000.34,0000.10,23.6,01.0,0666.1,31.0
2020-05-24T03:08:00Z,00000388,01000608,0001.14,0000.89,0000.28,0000.38,0000.19,0000.08,0000.19,-000.01,0000.26,23.6,00.9,0666.1,31.0
2020-05-24T03:09:00Z,00000388,01000608,0003.12,0001.69,0000.72,0001.23,0000.24,0000.29,0000.07,0000.15,-000.05,23.6,00.9,0666.1,31.0
2020-05-24T03:10:00Z,00000388,01000608,0001.24,0001.49,0000.64,0000.09,-000.03,0000.37,0000.06,0000.20,0000.18,23.6,00.9,0666.1,31.0